EHI
0 0 0 0 0 0 0 0 0 0 0 0 0 0 0 0 0 0 0 0 0 0 0 0 0 0 0 0 0 0 0 0 0 0 0 0 0 0 0 0 0 0 0
0 0 0 0 0 0 0 0 0 0 0 0 0 0 0 0 0 0 0 0 0 0 0 0 0 0 0 0 0 0 0 0 0 0 0 0 0 0 0 0 0 0 0
0 0 0 0 0 0 0 0 0 0 0 0 0 0 0 0 0 0 0 0 0 0 0 0 0 0 0 0 0 0 0 0 0 0 0 0 0 0 0 0 0 0 0
0 0 0 0 0 0 0 0 0 0 0 0 0 0 0 0 0 0 0 0 0 0 0 0 0 0 0 0 0 0 0 0 0 0 0 0 0 0 0 0 0 0 0
0 0 0 0 0 0 0 0 0 0 0 0 0 0 0 0 0 0 0 0 0 0 0 0 0 0 0 0 0 0 0 0 0 0 0 0 0 0 0 0 0 0 0
0 0 0 0 0 0 0 0 0 0 0 0 0 0 0 0 0 0 0 0 0 0 0 0 0 0 0 0 0 0 0 0 0 0 0 0 0 0 0 0 0 0 0
0 0 0 0 0 0 0 0 0 0 0 0 0 0 0 0 0 0 0 0 0 0 0 0 0 0 0 0 0 0 0 0 0 0 0 0 0 0 0 0 0 0 0
0 0 0 0 0 0 0 0 0 0 0 0 0 0 0 0 0 0 0 0 0 0 0 0 0 0 0 0 0 0 0 0 0 0 0 0 0 0 0 0 0 0 0
0 0 0 0 0 0 0 0 0 0 0 0 0 0 0 0 0 0 0 0 0 0 0 0 0 0 0 0 0 0 0 0 0 0 0 0 0 0 0 0 0 0 0
0 0 0 0 0 0 0 0 0 0 0 0 0 0 0 0 0 0 0 0 0 0 0 0 0 0 0 0 0 0 0 0 0 0 0 0 0 0 0 0 0 0 0
0 0 0 0 0 0 0 0 0 0 0 0 0 0 0 0 0 0 0 0 0 0 0 0 0 0 0 0 0 0 0 0 0 0 0 0 0 0 0 0 0 0 0
0 0 0 0 0 0 0 0 0 0 0 0 0 0 0 0 0 0 0 0 0 0 0 0 0 0 0 0 0 0 0 0 0 0 0 0 0 0 0 0 0 0 0
0 0 0 0 0 0 0 0 0 0 0 0 0 0 0 0 0 0 0 0 0 0 0 0 0 0 0 0 0 0 0 0 0 0 0 0 0 0 0 0 0 0 0
0 0 0 0 0 0 0 0 0 0 0 0 0 0 0 0 0 0 0 0 0 0 0 0 0 0 0 0 0 0 0 0 0 0 0 0 0 0 0 0 0 0 0
0 0 0 0 0 0 0 0 0 0 0 0 0 0 0 0 0 0 0 0 0 0 0 0 0 0 0 0 0 0 0 0 0 0 0 0 0 0 0 0 0 0 0
0 0 0 0 0 0 0 0 0 0 0 0 0 0 0 0 0 0 0 0 0 0 0 0 0 0 0 0 0 0 0 0 0 0 0 0 0 0 0 0 0 0 0
0 0 0 0 0 0 0 0 0 0 0 0 0 0 0 0 0 0 0 0 0 0 0 0 0 0 0 0 0 0 0 0 0 0 0 0 0 0 0 0 0 0 0
0 0 0 0 0 0 0 0 0 0 0 0 0 0 0 0 0 0 0 0 0 0 0 0 0 0 0 0 0 0 0 0 0 0 0 0 0 0 0 0 0 0 0
0 0 0 0 0 0 0 0 0 0 0 0 0 0 0 0 0 0 0 0 0 0 0 0 0 0 0 0 0 0 0 0 0 0 0 0 0 0 0 0 0 0 0
0 0 0 0 0 0 0 0 0 0 0 0 0 0 0 0 0 0 0 0 0 0 0 0 0 0 0 0 0 0 0 0 0 0 0 0 0 0 0 0 0 0 0
0 0 0 0 0 0 0 0 0 0 0 0 0 0 0 0 0 0 0 0 0 0 0 0 0 0 0 0 0 0 0 0 0 0 0 0 0 0 0 0 0 0 0
0 0 0 0 0 0 0 0 0 0 0 0 0 0 0 0 0 0 0 0 0 0 0 0 0 0 0 0 0 0 0 0 0 0 0 0 0 0 0 0 0 0 0
0 0 0 0 0 0 0 0 0 0 0 0 0 0 0 0 0 0 0 0 0 0 0 0 0 0 0 0 0 0 0 0 0 0 0 0 0 0 0 0 0 0 0
0 0 0 0 0 0 0 0 0 0 0 0 0 0 0 0 0 0 0 0 0 0 0 0 0 0 0 0 0 0 0 0 0 0 0 0 0 0 0 0 0 0 0
0 0 0 0 0 0 0 0 0 0 0 0 0 0 0 0 0 0 0 0 0 0 0 0 0 0 0 0 0 0 0 0 0 0 0 0 0 0 0 0 0 0 0
0 0 0 0 0 0 0 0 0 0 0 0 0 0 0 0 0 0 0 0 0 0 0 0 0 0 0 0 0 0 0 0 0 0 0 0 0 0 0 0 0 0 0
Wind_Speed
2 1 1 1 3 5 6 6 5 5 5 3 2 2 2 1 2 2 2 2 4 5 5 4 5 6 6 6 6 3 3 2 3 4 3 3 3 4 3 2 3 4 4
2 2 2 1 3 5 7 6 5 4 3 2 2 2 2 2 1 2 2 3 5 6 6 6 6 7 5 6 6 5 4 2 3 4 3 1 1 3 3 3 3 3 3
5 4 2 2 4 5 5 4 4 3 4 4 3 2 2 2 1 2 2 2 5 6 5 5 6 7 7 7 9 8 7 5 2 2 4 4 3 1 2 2 2 2 3
6 4 4 4 5 5 5 4 4 4 3 4 4 4 3 3 3 2 3 4 6 5 4 3 5 7 6 7 9 7 4 7 5 2 1 3 4 4 2 1 2 2 2
7 6 6 6 4 3 3 4 4 4 4 4 5 5 4 4 3 3 4 5 4 5 4 1 3 5 6 7 9 7 5 4 5 4 3 3 2 3 4 2 1 1 0
7 7 6 5 4 3 3 3 4 4 4 5 5 5 5 5 4 4 5 5 5 6 8 6 4 2 1 1 5 7 6 4 4 4 4 4 4 4 4 3 3 3 2
7 8 7 7 7 5 5 4 4 4 4 5 5 5 5 6 6 6 6 6 5 5 9 7 5 3 4 1 2 3 3 4 4 4 4 4 3 4 4 4 3 2 2
8 9 10 9 7 6 5 5 4 3 3 4 4 4 5 5 4 4 4 4 4 5 9 8 6 1 1 3 4 3 3 3 4 6 5 4 4 4 4 5 5 3 2
10 10 8 7 7 7 7 6 5 4 4 4 3 3 4 4 4 4 4 3 4 5 7 8 6 2 2 4 4 3 3 4 4 5 6 5 5 5 4 4 4 6 5
9 8 6 7 8 8 7 6 6 5 3 3 3 3 4 4 4 5 6 5 4 4 5 6 7 6 3 1 3 2 3 3 4 4 5 5 4 5 5 5 4 3 4
7 7 5 6 7 6 6 6 6 5 4 4 3 3 3 3 3 4 4 4 4 5 7 9 9 8 8 8 6 4 5 6 6 5 5 5 5 4 4 4 4 4 4
7 7 6 6 6 6 6 7 7 7 7 5 5 5 5 5 4 4 4 4 3 4 4 6 9 9 8 7 8 8 7 6 4 4 5 8 6 6 5 5 6 6 5
7 8 8 8 7 7 6 6 7 8 6 5 5 6 6 6 6 6 4 2 1 0 0 1 4 6 6 6 8 7 6 4 4 5 7 8 8 7 6 6 5 6 5
6 7 8 8 8 7 7 7 7 6 5 5 5 6 7 7 8 7 5 4 3 3 3 3 4 4 5 7 8 9 7 6 6 6 6 7 8 8 8 7 7 6 6
6 8 9 10 8 7 6 6 6 5 5 5 6 7 6 6 7 7 7 6 6 6 5 4 4 4 5 6 8 8 7 7 6 6 6 6 9 11 10 8 7 8 7
7 7 8 8 7 6 6 6 6 5 5 6 7 6 5 6 7 6 6 7 6 6 5 5 5 4 3 5 6 5 6 7 8 6 5 5 9 12 14 14 14 14 12
6 5 6 5 5 5 6 7 6 5 7 7 7 6 6 7 7 5 6 7 6 5 5 5 5 4 4 6 8 7 5 6 6 6 5 4 3 5 5 11 14 15 17
4 4 5 5 3 1 2 3 4 5 5 6 6 6 6 7 6 6 7 6 5 5 5 4 4 2 5 8 7 6 3 4 4 4 4 4 3 3 3 4 6 8 10
4 4 5 6 5 5 4 3 1 3 4 4 4 4 5 6 5 5 5 5 5 5 4 3 3 3 4 5 5 3 1 2 2 3 5 6 5 3 3 4 6 6 5
6 6 5 6 6 6 7 8 6 4 4 5 3 3 5 6 5 6 5 4 6 6 5 4 3 1 2 4 3 1 1 0 1 2 3 6 7 6 6 5 4 5 5
5 6 7 6 5 4 6 6 5 5 3 4 4 3 1 2 3 7 6 6 6 6 4 3 2 0 2 3 3 4 2 1 1 1 2 2 4 5 3 5 4 2 2
5 5 6 5 4 4 6 5 4 3 3 4 4 4 3 2 3 4 5 6 6 4 2 1 2 1 1 3 4 4 6 5 3 2 2 2 2 4 3 3 3 3 3
5 4 5 5 3 3 4 4 1 2 4 4 4 3 4 3 3 3 4 2 2 3 3 1 1 2 1 2 3 4 6 7 3 1 2 2 4 3 3 2 3 3 3
4 4 5 4 2 2 1 2 2 2 3 4 3 3 4 4 3 1 1 1 1 1 1 2 3 3 2 2 2 2 2 4 3 3 4 4 3 2 1 1 2 2 2
3 4 4 4 3 2 1 2 3 3 4 4 3 3 3 4 4 2 0 1 1 2 1 2 2 2 3 3 4 4 3 3 5 5 4 3 3 2 1 1 0 1 2
4 3 3 3 3 3 3 3 4 4 4 3 2 1 2 2 3 3 3 4 4 3 2 1 0 1 4 4 3 6 8 11 10 4 2 1 1 1 1 1 1 1 2
Wind_Direction
199 261 348 337 168 142 132 144 160 141 116 103 101 113 162 176 189 200 228 162 174 189 187 194 162 168 177 178 158 122 111 114 138 107 82 54 63 67 54 69 87 77 65
223 302 339 335 187 168 157 153 155 149 137 124 118 112 118 140 187 122 154 205 201 196 199 182 173 170 160 151 152 143 123 152 184 128 128 107 32 40 39 54 62 66 56
203 223 240 242 218 199 192 179 168 160 156 134 107 82 89 100 125 153 143 230 235 209 205 193 179 168 167 172 171 160 155 155 187 165 140 158 188 152 28 37 56 52 43
200 207 220 228 212 193 182 182 196 198 175 151 159 172 161 168 174 142 135 179 215 209 206 215 200 187 179 178 177 164 158 145 160 155 114 125 147 145 149 357 9 49 51
189 203 217 230 228 203 180 182 204 215 193 183 189 178 159 151 150 148 143 142 143 130 107 78 197 206 196 183 170 164 159 144 157 161 152 124 99 118 133 173 242 297 309
194 213 223 230 235 226 204 183 189 201 194 199 204 187 175 161 159 161 157 153 138 120 102 78 73 55 360 204 169 160 159 145 151 163 160 158 161 169 148 151 185 203 223
198 213 215 216 218 211 206 198 198 199 185 193 203 198 187 179 185 174 174 174 166 141 116 100 70 49 61 68 146 146 169 170 178 177 178 182 174 152 148 143 151 168 209
208 216 213 207 208 208 203 206 211 205 191 208 215 191 191 186 183 172 169 175 166 148 134 127 113 110 176 185 175 171 188 199 203 185 179 188 184 178 169 158 148 145 186
216 221 212 199 199 205 207 204 213 224 197 208 218 198 195 194 180 171 171 175 167 159 148 138 130 184 230 200 172 146 181 203 213 203 194 192 186 190 188 173 165 156 184
233 235 217 200 203 201 196 195 208 231 223 211 219 211 203 203 182 171 186 198 187 165 165 152 162 175 186 212 233 153 178 208 223 200 194 197 187 191 187 181 181 166 168
244 251 239 215 208 192 186 189 198 215 221 222 225 219 216 210 187 179 197 199 195 192 187 179 180 185 193 202 212 205 216 216 210 197 192 210 196 192 181 175 171 170 158
250 245 232 210 206 199 195 189 193 210 212 201 211 216 195 187 190 191 192 192 208 207 186 178 175 181 197 200 196 200 224 229 218 221 211 220 192 199 186 183 188 186 176
246 230 210 203 205 208 203 196 197 210 213 196 198 211 199 186 192 203 197 178 180 199 330 190 178 182 187 204 210 200 223 217 213 219 221 222 187 199 190 190 194 189 176
253 222 207 199 203 204 206 206 216 208 207 205 213 213 206 199 194 194 193 183 181 188 199 197 187 193 201 203 211 207 207 216 213 210 217 223 198 201 189 190 189 176 170
245 219 208 199 199 196 201 210 225 215 198 206 224 234 213 203 198 192 185 177 177 187 188 189 203 218 220 210 201 205 202 221 235 217 191 210 227 222 203 187 176 168 170
273 232 203 192 184 199 197 209 223 213 205 219 228 235 222 215 212 195 178 173 182 190 185 192 220 237 240 256 258 224 196 212 221 225 199 205 229 226 214 201 188 180 177
271 213 180 175 166 195 198 221 224 200 207 223 231 218 218 220 219 197 176 179 183 182 188 192 205 232 258 267 259 247 220 214 213 205 189 197 202 211 213 211 202 194 192
249 177 149 127 118 122 175 226 234 228 227 231 237 229 220 224 215 198 196 186 183 184 184 194 199 241 278 284 295 295 236 210 216 203 174 172 191 182 215 218 196 192 199
88 91 94 100 96 81 78 96 250 270 267 261 250 249 240 232 195 210 206 163 158 155 164 158 178 205 259 287 296 294 254 235 215 182 178 159 146 159 163 178 184 179 186
85 92 95 96 85 73 78 78 64 46 357 329 312 245 230 225 192 171 166 142 132 126 131 138 130 174 269 287 280 165 127 146 148 188 203 175 150 135 131 127 148 189 195
83 84 81 82 87 97 94 85 74 59 35 29 45 62 156 203 171 149 148 145 135 125 119 98 84 204 255 282 273 180 155 188 178 207 227 228 165 134 131 145 146 161 200
88 87 95 99 94 86 88 81 62 27 40 61 67 74 93 112 137 141 145 149 141 146 135 56 13 316 255 282 280 213 193 190 192 218 246 272 225 165 209 180 148 178 196
115 111 115 107 82 75 97 109 101 47 57 63 65 75 73 84 121 143 147 151 160 151 140 200 267 286 278 268 291 267 211 192 176 196 201 223 238 209 171 133 122 163 180
132 128 121 121 138 160 121 137 155 102 72 62 60 74 84 82 67 74 137 115 20 349 49 307 295 298 301 269 261 278 186 160 117 86 73 65 57 95 129 121 148 168 187
138 141 147 161 182 184 201 194 165 140 110 96 83 65 80 105 95 63 354 198 250 263 246 267 254 246 259 244 204 194 158 138 128 103 69 51 35 31 68 89 178 222 232
156 161 181 202 216 224 254 239 174 150 128 116 107 90 88 94 111 110 75 47 41 32 38 46 72 288 282 285 208 172 142 139 132 106 113 129 156 240 236 222 240 243 244